This is the latest recevied weather packets stored in our database for station/object DL1GHN-6. If no packets are shown the sender has not sent any weather packets the latest 10 day(s).
| Time | Temp. | Humidity | Pressure | Rain* | Wind** | Luminosity | Snow |
|---|---|---|---|---|---|---|---|
| 1777550882 | 20.56° C | 28% | 1022.8 hPa | 0 mm | - | 812 W/m² | - |
| 1777550581 | 21.11° C | 25% | 1022.7 hPa | 0 mm | - | 814 W/m² | - |
| 1777550280 | 21.11° C | 24% | 1022.8 hPa | 0 mm | - | 817 W/m² | - |
| 1777549980 | 20.56° C | 27% | 1022.7 hPa | 0 mm | - | 819 W/m² | - |
| 1777549680 | 21.11° C | 27% | 1022.8 hPa | 0 mm | - | 821 W/m² | - |
| 1777549380 | 20.56° C | 30% | 1022.8 hPa | 0 mm | - | 823 W/m² | - |
| 1777549081 | 20.56° C | 26% | 1022.8 hPa | 0 mm | - | 821 W/m² | - |
| 1777548780 | 20° C | 27% | 1022.8 hPa | 0 mm | - | 821 W/m² | - |
| 1777548481 | 20° C | 25% | 1022.9 hPa | 0 mm | - | 824 W/m² | - |
| 1777548180 | 20° C | 29% | 1022.9 hPa | 0 mm | - | 824 W/m² | - |
| 1777547880 | 20° C | 28% | 1022.9 hPa | 0 mm | - | 821 W/m² | - |
| 1777547582 | 20° C | 26% | 1023 hPa | 0 mm | - | 819 W/m² | - |
| 1777547280 | 20° C | 27% | 1023 hPa | 0 mm | - | 819 W/m² | - |
| 1777546981 | 19.44° C | 28% | 1023.1 hPa | 0 mm | - | 817 W/m² | - |
| 1777546682 | 19.44° C | 27% | 1023.1 hPa | 0 mm | - | 816 W/m² | - |
| 1777546381 | 18.89° C | 26% | 1023.2 hPa | 0 mm | - | 817 W/m² | - |
| 1777546081 | 18.89° C | 27% | 1023.2 hPa | 0 mm | - | 814 W/m² | - |
| 1777545780 | 18.89° C | 28% | 1023.3 hPa | 0 mm | - | 812 W/m² | - |
| 1777545481 | 19.44° C | 26% | 1023.3 hPa | 0 mm | - | 810 W/m² | - |
| 1777545181 | 19.44° C | 26% | 1023.2 hPa | 0 mm | - | 803 W/m² | - |
| 1777544881 | 19.44° C | 27% | 1023.1 hPa | 0 mm | - | 800 W/m² | - |
| 1777544580 | 18.89° C | 28% | 1023.1 hPa | 0 mm | - | 795 W/m² | - |
| 1777544280 | 19.44° C | 26% | 1023.1 hPa | 0 mm | - | 791 W/m² | - |
| 1777543981 | 18.89° C | 26% | 1023.2 hPa | 0 mm | - | 784 W/m² | - |
| 1777543681 | 18.89° C | 30% | 1023.2 hPa | 0 mm | - | 782 W/m² | - |
* Rain latest hour (hover to see other rain measurements)
** Current wind speed in m/s (hover to see current wind gust speed)